Location: Montbazon
(47.2835°N, 0.6999°E)
Time: 17:10:00
(UTC+00:00)

COSMO-SKYMED 1 - Pass Details

Date: 08 November 2025
Orbit: 579 x 581 km, 97.9° (Epoch: 10 December)

Event Time Altitude Azimuth Distance (km) Brightness Sun altitude
Rises 04:51:59 0° 151° (SSE) 2,794 6.4 -20.4°
Reaches altitude 10° 04:54:10 10° 147° (SSE) 1,899 5.5 -20.0°
Maximum altitude 04:58:09 50° 72° (ENE) 746 3.3 -19.3°
Drops below altitude 10° 05:02:10 10° 356° (N) 1,913 5.0 -18.7°
Sets 05:04:23 0° 352° (N) 2,817 5.8 -18.3°
